This is the latest recevied weather packets stored in our database for station/object KD4MBW. If no packets are shown the sender has not sent any weather packets the latest 10 day(s).
| Time | Temp. | Humidity | Pressure | Rain* | Wind** | Luminosity | Snow |
|---|---|---|---|---|---|---|---|
| 1787923780 | 22.78° C | 99% | 1016.7 hPa | 0 mm | - | 40 W/m² | - |
| 1787923475 | 22.78° C | 99% | 1016.8 hPa | 0 mm | - | 37 W/m² | - |
| 1787923171 | 22.78° C | 99% | 1016.8 hPa | 0 mm | - | 33 W/m² | - |
| 1787922866 | 22.22° C | 99% | 1016.7 hPa | 0 mm | - | 29 W/m² | - |
| 1787922565 | 22.22° C | 99% | 1016.9 hPa | 0 mm | - | 27 W/m² | - |
| 1787922264 | 22.22° C | 99% | 1016.9 hPa | 0 mm | - | 26 W/m² | - |
| 1787921961 | 22.78° C | 99% | 1016.9 hPa | 1.78 mm | - | 24 W/m² | - |
| 1787921656 | 22.22° C | 99% | 1016.9 hPa | 3.05 mm | - | 21 W/m² | - |
| 1787921350 | 22.78° C | 99% | 1016.8 hPa | 1.27 mm | - | 16 W/m² | - |
| 1787921046 | 22.78° C | 99% | 1017 hPa | 0 mm | - | 12 W/m² | - |
| 1787920741 | 22.78° C | 99% | 1017.2 hPa | 1.78 mm | - | 9 W/m² | - |
| 1787920440 | 22.78° C | 99% | 1017 hPa | 1.78 mm | - | 7 W/m² | - |
| 1787920137 | 22.78° C | 99% | 1017 hPa | 0 mm | - | 6 W/m² | - |
| 1787919832 | 22.78° C | 99% | 1017.2 hPa | 1.27 mm | - | 4 W/m² | - |
| 1787919531 | 22.78° C | 99% | 1017.3 hPa | 1.27 mm | - | 3 W/m² | - |
| 1787919227 | 22.78° C | 99% | 1017.3 hPa | 1.78 mm | - | 3 W/m² | - |
| 1787918921 | 22.78° C | 99% | 1017.3 hPa | 3.05 mm | - | 2 W/m² | - |
| 1787918617 | 22.78° C | 99% | 1017.2 hPa | 3.05 mm | - | 1 W/m² | - |
| 1787918314 | 22.78° C | 99% | 1017.3 hPa | 4.83 mm | - | 1 W/m² | - |
| 1787918009 | 22.78° C | 99% | 1017.4 hPa | 7.11 mm | - | 1 W/m² | - |
| 1787917704 | 22.78° C | 99% | 1017 hPa | 16.76 mm | - | 1 W/m² | - |
| 1787917400 | 22.78° C | 99% | 1017.2 hPa | 27.69 mm | - | 1 W/m² | - |
| 1787917095 | 22.78° C | 99% | 1017.1 hPa | 22.86 mm | - | 1 W/m² | - |
| 1787916790 | 23.33° C | 99% | 1017.2 hPa | 9.65 mm | - | 1 W/m² | - |
| 1787916490 | 23.33° C | 99% | 1017.2 hPa | 3.56 mm | - | 1 W/m² | - |
* Rain latest hour (hover to see other rain measurements)
** Current wind speed in m/s (hover to see current wind gust speed)